DW8222 Weather Reports


time (UTC)temp
C
wind
direction
speed
KPH
gust
KPH
rain 1hr
cm
rain 24hr
cm
rain mn
cm
humidity
%
barometer
mb
20260506221520 20 311 14.5 45.1 0.00 0.00 0.00 43 1013.0
20260506220018 20 278 16.1 25.7 0.00 0.00 0.00 45 1013.0
20260506214514 20 283 14.5 37.0 0.00 0.00 0.00 44 1012.9
20260506213013 20 264 16.1 35.4 0.00 0.00 0.00 45 1013.0
20260506211509 20 240 11.3 32.2 0.00 0.00 0.00 48 1013.0
20260506210008 20 297 11.3 37.0 0.00 0.00 0.00 48 1012.9
20260506204504 20 283 14.5 45.1 0.00 0.00 0.00 46 1012.9
20260506203104 21 277 12.9 27.4 0.00 0.00 0.00 46 1012.8
20260506203002 21 293 12.9 27.4 0.00 0.00 0.00 45 1012.9
20260506201557 21 311 14.5 38.6 0.00 0.00 0.00 46 1012.7
20260506200136 21 293 12.9 33.8 0.00 0.00 0.00 45 1012.5
20260506194555 21 266 17.7 30.6 0.00 0.00 0.00 45 1012.4
20260506193148 20 272 14.5 29.0 0.00 0.00 0.00 47 1012.2
20260506191547 21 293 16.1 38.6 0.00 0.00 0.00 47 1012.5
20260506190041 21 288 9.7 35.4 0.00 0.00 0.00 47 1012.4
20260506184537 21 267 12.9 41.8 0.00 0.00 0.00 46 1012.4
20260506183035 20 280 20.9 41.8 0.00 0.00 0.00 48 1012.5
20260506181535 20 281 17.7 40.2 0.00 0.00 0.00 50 1012.5
20260506180034 20 295 9.7 32.2 0.00 0.00 0.00 49 1012.3
20260506174526 19 288 17.7 32.2 0.00 0.00 0.00 49 1012.5
20260506173019 18 290 14.5 35.4 0.00 0.00 0.00 52 1012.4
20260506171533 18 277 6.4 25.7 0.00 0.00 0.00 52 1012.7
20260506170011 18 293 8.0 22.5 0.00 0.00 0.00 56 1012.8
20260506164504 17 289 12.9 32.2 0.00 0.00 0.00 56 1012.9
20260506163003 17 296 14.5 29.0 0.00 0.00 0.00 56 1012.9
20260506161558 16 301 12.9 27.4 0.00 0.00 0.00 60 1013.2
20260506160059 16 283 12.9 27.4 0.00 0.00 0.00 63 1013.0
20260506154544 15 304 11.3 27.4 0.00 0.00 0.00 64 1013.0
20260506153042 15 332 11.3 20.9 0.00 0.00 0.00 67 1013.3
20260506151534 14 312 9.7 25.7 0.00 0.00 0.00 70 1013.3
20260506150033 13 321 9.7 17.7 0.00 0.00 0.00 73 1013.5
20260506144527 12 333 6.4 17.7 0.00 0.00 0.00 76 1013.6
20260506143024 12 293 9.7 16.1 0.00 0.00 0.00 78 1013.6
20260506141522 11 348 4.8 14.5 0.00 0.00 0.00 82 1013.6
20260506140020 9 43 1.6 6.4 0.00 0.00 0.00 84 1013.7
20260506134534 8 23 8.0 19.3 0.00 0.00 0.00 90 1013.6
20260506133015 7 277 0.0 6.4 0.00 0.00 0.00 88 1013.5
20260506131511 7 280 1.6 4.8 0.00 0.00 0.00 89 1013.4
20260506130010 6 283 1.6 3.2 0.00 0.00 0.00 91 1013.4
20260506124510 6 285 0.0 6.4 0.00 0.00 0.00 89 1013.3
20260506123059 7 279 3.2 8.0 0.00 0.00 0.00 88 1013.1
20260506121605 8 307 3.2 8.0 0.00 0.00 0.00 85 1013.1
20260506120050 8 287 0.0 4.8 0.00 0.00 0.00 83 1012.9
20260506114552 9 294 1.6 8.0 0.00 0.00 0.00 82 1012.9
20260506113045 9 348 3.2 8.0 0.00 0.00 0.00 86 1012.8
20260506111542 9 281 3.2 9.7 0.00 0.00 0.00 82 1012.7
20260506110039 10 5 4.8 12.9 0.00 0.00 0.00 81 1012.4
20260506104536 11 1 6.4 16.1 0.00 0.00 0.00 80 1012.4
20260506103034 10 339 8.0 14.5 0.00 0.00 0.00 81 1012.2
20260506101533 8 288 1.6 4.8 0.00 0.00 0.00 86 1012.3
20260506100033 10 313 1.6 8.0 0.00 0.00 0.00 79 1012.1
20260506094524 11 330 6.4 12.9 0.00 0.00 0.00 77 1012.1
20260506093019 11 326 6.4 24.1 0.00 0.00 0.00 76 1012.1
20260506091514 12 335 8.0 17.7 0.00 0.00 0.00 75 1011.9
20260506090009 12 342 9.7 19.3 0.00 0.00 0.00 74 1011.9
20260506084506 12 343 8.0 19.3 0.00 0.00 0.00 73 1011.8
20260506083005 12 4 9.7 20.9 0.00 0.00 0.00 74 1011.8
20260506081558 12 342 9.7 17.7 0.00 0.00 0.00 73 1011.9
20260506073042 13 299 8.0 19.3 0.00 0.00 0.00 69 1011.6
20260506071538 13 321 11.3 19.3 0.00 0.00 0.00 69 1011.5
20260506061533 15 352 9.7 27.4 0.00 0.00 0.00 66 1011.1
20260506044517 17 317 11.3 29.0 0.00 0.00 0.00 59 1010.4
20260506043013 17 288 16.1 33.8 0.00 0.00 0.00 57 1010.3
20260506041507 18 300 12.9 30.6 0.00 0.00 0.00 56 1010.1
20260506040006 18 252 12.9 24.1 0.00 0.00 0.00 55 1010.1
20260506034508 18 277 11.3 24.1 0.00 0.00 0.00 54 1009.8
20260506033008 19 300 8.0 29.0 0.00 0.00 0.00 53 1009.6
20260506031502 20 262 14.5 29.0 0.00 0.00 0.00 52 1009.4
20260506030003 20 262 14.5 27.4 0.00 0.00 0.00 50 1009.2
20260506024606 21 289 9.7 24.1 0.00 0.00 0.00 48 1009.1
20260506023056 22 266 8.0 29.0 0.00 0.00 0.00 46 1009.0
20260506021553 22 278 6.4 19.3 0.00 0.00 0.00 45 1008.9
20260506020106 23 228 12.9 30.6 0.00 0.00 0.00 43 1008.8
20260506014651 23 262 9.7 22.5 0.00 0.00 0.00 42 1008.6
20260506013049 23 318 12.9 29.0 0.00 0.00 0.00 39 1008.6
20260506011610 24 204 12.9 27.4 0.00 0.00 0.00 37 1008.6
20260506010046 25 274 11.3 25.7 0.00 0.00 0.00 36 1008.5
20260506004557 25 293 14.5 27.4 0.00 0.00 0.00 34 1008.6
20260506003037 25 288 6.4 29.0 0.00 0.00 0.00 34 1008.4
20260506001537 25 259 11.3 20.9 0.00 0.00 0.00 34 1008.4
20260506000058 26 276 11.3 25.7 0.00 0.00 0.00 34 1008.5
20260505234541 26 221 12.9 35.4 0.00 0.00 0.00 31 1008.7
20260505233029 26 250 11.3 25.7 0.00 0.00 0.00 30 1008.6
20260505231527 26 256 12.9 25.7 0.00 0.00 0.00 30 1008.7
20260505230047 26 233 12.9 25.7 0.00 0.00 0.00 29 1008.8
20260505224534 26 260 11.3 20.9 0.00 0.00 0.00 30 1008.7
20260505223023 26 267 12.9 22.5 0.00 0.00 0.00 31 1008.9